Preview of NWS' New Version of Forecast
This preview is not operational and should not be used for support decisions.

Regional Weather Roundup (RWR)

Issued by National Weather Service (NWS)

                            
000
ASUS45 KABQ 201001
RWRNM 
NEW MEXICO REGIONAL WEATHER ROUNDUP
NATIONAL WEATHER SERVICE ALBUQUERQUE NM
300 AM MST WED FEB 20 2019

NOTE: "FAIR" MEANS FEW OR NO CLOUDS BELOW 12,000 FEET AGL WITH NO
       SIGNIFICANT WEATHER OR OBSTRUCTIONS TO VISION.

      THIS PRODUCT IS RELEASED AS TWO VERSIONS.  ONE VERSION NEAR
      THE TOP OF THE HOUR CONTAINING PRELIMINARY DATA FROM ALBUQUERQUE
      AND OTHER STATIONS.  A FINAL VERSION WITH ADDITIONAL DATA IS 
      ISSUED ABOUT 10 MINUTES AFTER THE HOUR.
 
NMZ501-503-504-510>518-201100-
NORTHWEST PLATEAU/NORTHCENTRAL MOUNTAINS
  
CITY           SKY/WX    TMP DP  RH WIND       PRES   REMARKS
FARMINGTON     FAIR      11   8  88 NE5       29.81S WCI   3          
LOS ALAMOS     CLOUDY    16   8  72 S3        29.74F                  
SANTA FE       MOCLDY    17  14  88 W7        29.78S WCI   8          
TAOS           FAIR       8   4  83 SW12      29.74S WCI  -7          
ANGEL FIRE     LGT SNOW  10   2  72 W13G23    29.60F WCI  -6          

$$
NMZ402-403-502-505>509-201100-
WESTCENTRAL MOUNTAINS/SOUTHWEST MOUNTAINS
  
CITY           SKY/WX    TMP DP  RH WIND       PRES   REMARKS
GALLUP         MOCLDY    10   6  84 SW5       29.83F WCI   2          
GRANTS         FAIR      18   9  67 NW6       29.83S WCI  10          
SILVER CITY    FAIR      18  12  79 W5        29.95F WCI  11          

$$
NMZ407-409-411-412-201100-
SOUTHERN DESERTS
  
CITY           SKY/WX    TMP DP  RH WIND       PRES   REMARKS
DEMING         FAIR      23  13  65 SW3       29.96F                  
LAS CRUCES     FAIR      26  15  63 W6        29.96F WCI  20          
ALAMOGORDO     FAIR      27   9  46 MISG      29.95F                  
T OR C         FAIR      29  10  45 NW5       29.91F WCI  24          

$$
NMZ519>523-201100-
CENTRAL VALLEYS/CENTRAL HIGHLANDS
  
CITY           SKY/WX    TMP DP  RH WIND       PRES   REMARKS
ALBUQUERQUE    CLOUDY    26  15  63 W9        29.85S WCI  17          
DOUBLE EAGLE   CLOUDY    23  17  78 SW7       29.84S WCI  14          
MORIARTY ARPT  LGT SNOW  24  21  89 SW8       29.80F WCI  15          
CLINES CORNERS LGT SNOW  17  12  80 W28G37    29.71S WCI  -2          
BELEN          PTSUNNY   24  19  81 SW7       29.87F WCI  16          
SOCORRO        FAIR      19  14  78 NE3       29.89S                  

$$
NMZ524>526-539-540-201100-
SOUTHCENTRAL MOUNTAINS
  
CITY           SKY/WX    TMP DP  RH WIND       PRES   REMARKS
RUIDOSO        NOT AVBL                                               

$$
NMZ527>531-201100-
NORTHEAST HIGHLANDS/NORTHEAST PLAINS
  
CITY           SKY/WX    TMP DP  RH WIND       PRES   REMARKS
LAS VEGAS      FAIR      15   5  64 SW15      29.65F WCI   0          
RATON          FOG        9   6  88 NE6       29.61F VSB 1/2 WCI  -1  
CLAYTON        FAIR      11   7  84 W5        29.64F WCI   3          

$$
NMZ532>537-201100-
EASTCENTRAL PLAINS
  
CITY           SKY/WX    TMP DP  RH WIND       PRES   REMARKS
SANTA ROSA     FAIR      18  14  83 SW5       29.78F WCI  11          
TUCUMCARI      FAIR      31  15  52 W26       29.74R WCI  17          
CANNON AFB     FAIR      21  16  79 W17       29.80F WCI   7          
CLOVIS AIRPORT FAIR      22  18  85 W21       29.79F WCI   6          

$$
NMZ028-029-538-201100-
SOUTHEAST PLAINS
  
CITY           SKY/WX    TMP DP  RH WIND       PRES   REMARKS
ROSWELL        FAIR      26  15  63 W10       29.85F WCI  16          
ARTESIA        FAIR      30  10  43 W10       29.89S WCI  21          
CARLSBAD       FAIR      35  11  36 CALM      29.89F                  
HOBBS          FAIR      28  14  54 SW7       29.89S WCI  21          


$$